Miscellaneous Local Product
Issued by NWS Hastings, NE

Home | Current Version | Previous Version | Text Only | Print | Product List | Glossary On
Versions: 1 2 3 4 5 6 7 8 9 10 11 12 13 14 15 16 17 18 19 20 21 22 23 24 25 26 27 28 29 30 31 32 33 34 35 36 37 38 39 40 41 42 43 44 45 46 47 48 49 50
124
AXUS43 KGID 111302
MISGRI

GID CWA HOURLY WEATHER ROUNDUP
NATIONAL WEATHER SERVICE HASTINGS NE
700 AM CST MON DEC 11 2017

NOTE: "FAIR" INDICATES FEW OR NO CLOUDS BELOW 12,000 FEET WITH NO
SIGNIFICANT WEATHER AND/OR OBSTRUCTIONS TO VISIBILITY.

...SOUTH CENTRAL NEBRASKA...

CITY           SKY/WX    TMP DP  RH WIND       PRES   REMARKS
GRAND ISLAND   CLOUDY    40  19  43 W12       30.05S WCI  33
KEARNEY        CLOUDY    44  15  31 W13       30.10S
HASTINGS       CLOUDY    46  16  30 NW20      30.07S
ORD            CLOUDY    47  15  27 W20G31    30.02F
YORK           CLOUDY    45  18  33 W17       30.01S
AURORA         CLOUDY    42  16  35 W16       30.03S
LEXINGTON      CLOUDY    36  15  42 W13       30.14R WCI  28
HOLDREGE       PTCLDY    43  18  36 NW14G20   30.13S
HEBRON         CLOUDY    46  15  29 NW13      30.05S

...NEBRASKA PANHANDLE...

CITY           SKY/WX    TMP DP  RH WIND       PRES   REMARKS
CHADRON        CLOUDY    42  15  33 W18       30.24R
ALLIANCE       CLOUDY    31  14  49 W14       30.21F WCI  21
SCOTTSBLUFF    CLEAR     31  11  43 NW15      30.28R WCI  20
SIDNEY         CLOUDY    33   7  33 W13       30.26R WCI  24

...WESTERN AND NORTH CENTRAL NEBRASKA...

CITY           SKY/WX    TMP DP  RH WIND       PRES   REMARKS
VALENTINE      CLEAR     46  16  30 NW21G33   30.09R
AINSWORTH      CLEAR     40  19  44 NW12      30.08R WCI  33
ONEILL         CLEAR     44  21  40 NW23G33   30.02R
BROKEN BOW     CLOUDY    50  16  25 NW22G33   30.07F
IMPERIAL       PTCLDY    42   9  25 W14       30.22R
NORTH PLATTE   CLOUDY    28  18  66 NW6       30.17S WCI  22
MCCOOK         PTCLDY    39  13  34 W15       30.20R WCI  31

...EASTERN NEBRASKA...

CITY           SKY/WX    TMP DP  RH WIND       PRES   REMARKS
NORFOLK        CLEAR     45  19  35 NW24G33   29.93S
SO SIOUX CITY  LGT RAIN  44  24  45 NW30G40   29.87S
TEKAMAH        CLOUDY    43  20  39 NW25G35   29.91R
COLUMBUS       PTCLDY    45  19  35 W15       29.97S
ALBION         CLOUDY    48  18  29 NW20G29   29.99R
OMAHA EPPLEY   PTCLDY    44  17  33 W17G23    29.91R
OFFUTT AFB     CLOUDY    41  17  38 W12       29.90S
MILLARD        PTCLDY    44  20  38 NW10      29.93R
LINCOLN        CLOUDY    45  16  31 W16G25    29.98F
NEBRASKA CITY  CLEAR     41  19  41 W18       29.93S
BEATRICE       CLEAR     36  18  47 W10       30.00F WCI  28
FALLS CITY     CLOUDY    37  16  42 W14       29.95R WCI  28

...NORTHERN KANSAS...

CITY           SKY/WX    TMP DP  RH WIND       PRES   REMARKS
GOODLAND       CLEAR     34   4  28 NW15      30.25R WCI  24
HILL CITY      CLEAR     43  10  26 NW16G25   30.18R
NORTON         SUNNY     43   3  19 W14       30.17R
PHILLIPSBURG   CLEAR     45  10  24 CALM      30.15S
SMITH CENTER   CLEAR     36  12  38 NW12      30.13R WCI  27
HAYS           CLEAR     40   9  28 NW12      30.17R WCI  33
RUSSELL        CLEAR     34  13  41 W12       30.14R WCI  25
CONCORDIA      CLEAR     35  13  40 W12       30.07R WCI  27
SALINA         CLOUDY    40  13  33 W8        30.11R WCI  34
TOPEKA         CLOUDY    34  20  56 W8        30.00F WCI  27



USA.gov is the U.S. government's official web portal to all federal, state and local government web resources and services.